Theta_e
346 351 359 360 361 365 365 363 362 362 361 359 360 360 360 361 362 362 362 362 361 359 359 358 358 357 356 356 355 357 357 357 358 357 356 358 359 361 362 360 359 353 358
348 350 359 360 362 365 364 363 362 362 360 360 360 360 360 362 362 362 362 362 361 360 359 358 357 357 357 356 355 356 355 354 358 357 354 355 356 359 360 361 358 355 358
346 351 353 360 363 365 363 363 362 361 361 361 360 360 361 362 362 362 363 362 362 361 360 358 358 357 357 356 355 355 355 355 357 357 357 342 349 355 356 357 357 357 357
347 349 350 360 363 363 363 362 361 361 361 360 361 362 361 362 362 362 362 363 362 362 361 360 358 357 356 356 354 354 354 355 354 355 348 339 343 353 354 355 356 356 355
346 347 355 360 361 363 363 362 361 361 361 361 362 362 361 361 361 361 361 361 361 359 359 360 360 361 358 356 355 354 353 352 353 352 343 339 339 348 350 352 353 353 353
343 349 357 359 361 362 362 362 361 361 362 362 362 361 360 360 360 360 360 359 359 358 356 357 359 360 359 357 357 357 357 358 357 350 341 345 341 352 352 351 350 350 352
342 352 352 360 360 362 362 362 362 362 362 362 361 360 360 359 360 360 358 358 357 357 356 357 357 356 355 355 355 356 357 358 352 344 345 343 346 352 350 348 348 349 349
349 350 351 359 359 360 361 361 361 362 362 361 361 360 359 359 359 358 357 357 356 356 356 356 356 356 356 356 356 357 357 358 354 352 344 344 351 352 350 349 349 348 347
350 347 348 350 356 359 359 360 361 361 361 361 360 359 359 358 357 356 356 355 356 356 356 356 356 357 357 357 358 358 360 358 353 351 345 346 354 353 351 350 349 348 348
346 345 345 347 350 351 352 359 360 360 361 360 360 359 358 357 356 355 355 355 355 356 356 357 357 358 357 357 357 358 359 360 352 350 344 348 355 354 352 351 350 349 349
342 343 342 342 344 346 347 354 358 358 358 359 357 357 354 348 347 348 351 357 356 356 356 356 356 356 356 357 357 358 359 348 352 350 350 356 357 356 353 352 351 350 349
339 341 341 341 341 341 344 352 351 352 352 352 351 353 349 347 345 343 353 358 357 356 357 357 358 359 359 350 352 357 350 350 352 349 351 359 358 357 355 354 353 352 351
339 341 340 343 344 340 342 349 348 350 350 350 351 351 348 345 348 349 351 349 352 354 348 352 351 351 347 348 349 349 351 348 351 347 355 360 359 359 358 356 354 354 354
339 341 341 342 344 342 345 346 346 347 348 348 350 354 350 348 345 347 349 346 347 346 347 348 347 347 348 349 345 345 346 350 350 352 355 358 360 361 359 358 356 355 356
338 340 340 342 345 346 347 346 344 346 347 348 349 352 350 348 352 349 345 344 344 345 343 346 347 348 344 344 343 347 347 348 344 343 350 358 357 359 358 357 357 357 357
342 341 340 341 347 344 352 346 343 345 347 348 349 350 352 355 355 348 348 350 343 347 346 347 348 343 346 347 346 345 346 346 348 345 351 354 356 357 357 356 356 355 355
350 343 347 345 347 349 354 354 347 346 345 345 348 353 350 353 356 349 349 350 350 352 342 350 349 344 347 348 345 342 347 354 350 352 352 350 350 352 352 351 352 352 353
348 353 353 342 346 349 354 354 351 349 344 345 348 353 351 352 355 356 350 350 350 351 351 345 344 342 345 344 344 348 351 351 351 351 350 349 346 345 347 347 347 347 347
354 351 352 352 344 347 350 352 351 350 352 348 349 353 352 351 350 352 348 349 355 352 351 348 345 347 343 343 347 348 349 348 347 346 343 343 342 340 339 343 342 341 341
347 354 355 355 358 354 348 352 350 347 351 352 351 347 354 350 350 349 350 349 359 351 350 348 349 347 344 340 343 343 346 347 346 343 342 341 341 339 337 335 333 333 336
347 343 353 353 358 357 348 344 345 342 345 348 346 352 354 350 350 353 346 349 353 350 349 354 352 349 344 342 335 339 338 342 342 339 338 338 338 338 337 337 331 329 329
342 345 340 350 351 355 350 350 346 346 343 344 346 346 351 350 350 348 350 347 351 349 352 353 350 345 346 343 337 333 327 329 336 338 337 335 335 334 336 335 331 328 325
337 340 341 350 352 352 350 349 348 348 345 343 344 344 349 350 351 350 349 348 351 352 347 348 349 345 341 344 343 334 326 322 326 334 335 335 334 331 330 330 329 329 322
330 334 336 336 332 333 332 339 339 339 339 341 345 347 349 345 348 348 348 351 349 349 347 346 348 346 342 339 342 341 340 333 324 320 330 330 331 329 325 324 325 324 322
327 327 329 331 330 327 326 326 327 329 336 335 330 330 334 345 346 346 349 349 349 349 346 345 344 344 344 340 338 336 336 337 334 326 319 322 325 325 325 324 322 322 322
324 324 324 323 323 323 326 323 322 323 323 327 326 326 326 333 337 337 341 343 345 345 343 342 342 343 342 343 342 338 334 331 329 327 322 321 319 321 322 322 320 320 321
Wind_Speed
17 19 19 17 12 14 18 16 15 15 14 14 13 12 11 11 13 14 14 14 14 13 13 15 14 14 15 15 16 14 13 13 14 17 18 17 16 16 11 13 18 15 15
22 19 20 17 13 16 17 16 16 15 15 15 13 12 11 11 12 13 12 13 14 13 14 15 14 14 14 13 12 11 11 11 12 15 17 16 17 16 18 20 18 13 15
21 18 18 17 13 17 17 16 16 15 14 14 13 12 12 11 11 11 11 12 12 13 13 14 14 13 13 12 10 8 8 9 9 12 16 10 10 15 17 18 17 16 14
20 15 17 16 13 18 18 17 16 15 14 14 13 13 12 11 11 10 10 11 11 12 12 12 13 12 11 9 7 6 7 7 7 7 4 11 11 13 14 14 14 14 15
20 17 15 17 13 16 19 17 15 15 14 13 13 13 12 11 11 10 10 10 10 11 11 11 11 10 9 7 5 3 3 2 4 6 2 11 8 10 11 12 12 10 14
20 21 19 17 14 15 17 17 14 15 14 14 13 12 12 10 10 10 10 9 9 10 10 9 9 8 7 6 4 3 4 5 5 8 11 13 10 10 12 13 14 14 13
19 21 18 18 15 14 15 17 14 14 13 13 13 12 11 10 9 9 9 9 8 8 8 8 8 8 6 4 4 5 6 6 7 3 11 11 10 12 13 13 13 14 13
22 19 18 18 17 15 14 15 14 14 13 12 11 11 9 9 9 9 9 8 7 7 7 7 7 6 6 5 7 3 10 5 7 4 14 11 13 13 13 13 12 12 13
22 20 15 15 15 16 13 14 14 13 13 12 11 10 9 9 8 7 7 7 6 6 6 6 6 6 7 6 8 8 8 4 7 2 14 10 15 14 13 12 11 11 11
20 19 17 15 15 15 13 14 13 12 13 12 11 10 9 8 7 7 6 6 6 6 6 7 7 7 8 8 10 9 7 9 2 4 9 10 18 17 13 12 11 10 10
17 19 17 17 16 15 16 13 13 14 13 12 11 10 8 6 7 10 7 10 7 6 7 7 7 9 10 10 12 10 9 1 9 5 4 21 19 17 14 12 11 10 9
17 19 17 18 16 15 13 14 11 11 9 8 9 9 7 9 9 10 9 8 7 7 7 8 10 11 8 6 6 7 5 5 7 4 6 15 19 16 14 11 10 8 8
18 15 19 16 16 16 14 11 7 7 7 7 10 10 10 8 7 7 5 5 5 7 5 7 8 6 8 6 5 7 6 8 4 6 10 14 16 14 13 11 10 8 8
18 17 18 18 15 14 12 11 10 9 8 8 9 10 7 5 7 6 7 8 7 6 8 7 6 7 7 4 9 11 2 13 10 5 4 9 6 11 10 10 9 9 8
10 16 16 18 14 9 13 12 11 10 10 11 11 12 8 7 5 4 5 8 9 9 8 8 6 6 7 10 17 8 3 10 14 7 3 9 5 7 7 5 5 7 9
9 13 12 17 13 13 7 12 11 10 12 10 10 12 12 5 3 5 5 4 4 7 6 5 5 5 7 7 4 5 5 12 7 12 4 8 12 13 15 12 12 9 7
3 6 8 9 14 9 6 6 9 9 8 9 9 11 13 8 6 6 4 4 4 3 6 4 9 9 5 0 6 4 3 12 13 9 8 9 8 16 17 14 18 18 19
6 6 6 10 14 11 5 5 5 6 9 8 6 8 13 10 7 4 4 4 5 4 3 2 3 3 2 3 5 4 8 11 10 10 7 8 7 8 13 17 17 17 18
3 7 7 7 11 15 9 5 7 8 4 6 6 5 12 12 10 5 5 6 6 4 3 2 4 3 4 2 6 6 4 7 9 8 8 8 10 8 6 15 15 15 15
10 5 6 5 5 8 10 6 6 7 5 5 5 8 12 10 11 9 5 8 4 3 3 2 2 3 3 5 8 6 5 4 6 7 6 6 7 7 7 9 8 8 14
6 8 5 9 5 3 7 9 8 8 6 7 8 7 8 12 11 7 8 7 5 5 5 2 3 2 2 7 6 3 5 5 5 5 4 2 6 7 7 8 7 6 6
5 6 12 5 8 6 5 5 7 6 8 8 8 10 7 11 11 10 9 9 7 5 5 3 4 3 3 7 4 3 3 1 3 5 6 6 6 5 7 7 9 9 7
12 12 13 7 4 6 8 4 6 7 7 9 8 7 6 7 9 9 10 8 6 5 6 5 5 5 3 3 8 5 3 4 4 5 7 7 8 6 5 6 4 8 8
11 10 11 10 11 10 12 9 11 6 10 10 6 3 2 4 2 7 7 6 6 3 5 5 5 5 6 5 3 5 3 5 3 3 4 4 5 5 7 5 4 6 8
10 10 10 11 11 9 9 7 3 5 7 3 8 17 18 6 4 5 2 4 5 4 5 6 5 7 6 7 7 6 6 4 5 3 6 6 3 4 6 6 6 4 8
9 10 10 11 11 11 10 9 8 7 8 7 2 11 14 10 6 8 9 6 3 3 4 6 5 8 9 6 5 7 6 8 10 7 4 12 12 7 7 5 6 5 5
Wind_Direction
128 133 130 133 140 132 125 132 129 124 123 118 113 109 101 99 98 98 100 102 103 103 105 103 98 90 82 76 75 78 84 90 89 82 76 73 66 56 66 114 92 83 80
131 136 133 134 141 129 127 132 131 129 129 123 121 118 112 108 104 103 107 108 108 110 110 107 102 95 91 88 89 95 99 102 105 104 96 83 70 66 69 74 83 86 84
130 133 134 136 140 129 129 131 132 131 129 125 127 127 124 117 112 111 113 114 114 114 113 110 107 103 100 99 104 119 125 126 135 144 126 87 80 75 76 83 86 89 88
130 142 135 138 138 136 131 132 134 133 130 130 134 132 125 125 121 121 119 119 116 117 118 118 115 110 111 116 128 151 146 147 155 179 234 96 88 81 78 82 89 93 83
132 142 132 138 139 137 133 135 138 134 133 136 136 128 130 129 128 127 121 121 123 123 124 125 121 127 128 139 161 183 135 155 196 229 152 109 95 97 98 107 97 81 86
139 128 138 139 140 137 135 137 140 139 138 137 131 133 133 134 129 122 121 122 125 128 132 129 125 129 136 159 179 243 242 230 246 229 103 102 98 116 105 94 96 95 94
141 126 141 141 143 138 138 139 143 141 139 139 134 136 139 135 130 125 123 126 133 137 141 141 137 141 151 180 213 243 283 291 293 96 102 106 119 120 115 109 108 106 104
124 138 142 143 144 145 145 144 145 143 141 136 137 141 143 141 141 137 136 140 145 149 153 148 150 155 161 198 236 235 256 273 280 287 120 117 133 128 124 119 116 113 112
129 132 145 149 147 144 147 144 144 144 143 140 143 145 150 150 150 150 148 155 162 163 164 160 172 176 184 209 243 239 255 332 297 356 121 129 141 134 132 128 125 121 117
136 138 152 152 156 154 155 150 148 150 144 140 144 150 157 161 161 167 167 177 179 188 186 181 190 194 195 202 236 248 269 221 242 1 141 137 144 141 142 140 137 134 129
146 143 158 160 162 165 156 158 151 158 150 147 153 160 164 192 186 171 189 155 176 204 197 199 201 208 213 207 226 229 238 310 50 74 104 145 142 143 146 148 148 148 143
160 152 163 166 164 173 156 150 170 170 174 177 176 171 207 218 184 191 158 163 178 206 222 222 226 226 222 224 215 228 233 77 79 246 132 147 137 142 152 154 155 159 158
169 156 163 168 162 176 154 152 173 169 180 187 184 173 216 222 171 143 153 174 188 213 218 212 231 222 214 247 27 239 185 122 25 207 162 134 138 144 156 158 165 172 179
166 165 160 162 165 180 148 157 178 179 185 180 193 180 217 226 193 179 175 182 196 182 219 198 219 210 106 103 346 349 226 99 112 77 23 93 126 142 156 161 177 181 192
171 166 166 155 162 200 152 162 176 190 189 187 185 179 207 236 166 181 243 190 196 185 208 201 230 150 170 147 193 223 52 137 128 141 101 112 98 103 95 109 186 196 203
218 154 171 157 159 200 171 168 177 193 185 191 184 181 194 213 201 195 236 241 220 178 211 198 126 76 303 119 72 325 347 104 114 100 165 85 91 87 84 84 81 72 69
232 149 138 155 156 185 197 160 177 189 202 201 187 178 185 193 197 202 231 245 260 282 38 268 138 160 223 194 114 298 8 83 118 129 117 122 105 85 82 80 77 78 77
214 142 162 185 158 179 220 185 207 212 212 193 208 164 175 182 187 211 248 234 208 262 184 111 340 109 302 345 112 93 86 83 79 91 97 109 108 94 89 93 87 85 85
243 172 173 205 190 179 201 202 217 218 232 225 196 169 178 181 186 205 222 260 198 225 220 226 153 151 162 257 108 77 55 101 103 96 95 101 109 117 117 101 100 100 98
10 256 197 234 222 173 190 209 228 234 224 220 228 206 172 184 188 180 221 237 263 190 208 198 208 174 179 180 96 81 82 72 104 109 125 128 131 135 135 133 116 107 101
15 17 268 198 248 216 194 203 218 224 239 231 223 238 188 183 187 180 202 246 229 202 194 178 187 181 248 101 91 77 76 87 81 109 123 132 156 162 166 171 136 123 115
319 33 6 239 191 220 235 210 220 226 232 249 216 232 199 180 185 187 196 214 235 200 173 189 213 176 179 149 131 133 154 137 144 155 167 179 186 182 185 203 147 143 144
37 25 16 337 285 245 257 251 220 240 241 254 251 214 211 189 185 191 194 211 226 242 187 189 173 217 180 229 158 155 147 210 147 171 186 182 185 197 179 109 118 137 126
28 27 35 31 39 27 25 353 300 263 249 249 270 266 75 58 197 173 191 184 222 185 266 199 180 195 201 212 253 216 190 131 182 153 190 200 187 197 133 143 139 125 127
43 41 31 40 37 39 30 41 7 335 322 354 35 356 344 353 323 306 205 193 189 183 196 222 205 196 203 215 230 203 234 194 190 159 174 176 187 171 153 155 144 148 139
53 57 52 47 42 36 36 29 9 0 7 11 248 307 289 305 331 295 306 261 239 207 222 207 169 200 203 214 229 238 205 218 211 209 164 184 182 178 160 141 145 159 138